| time (UTC) | temp F | wind direction | speed MPH | gust MPH | rain 1hr in | rain 24hr in | rain mn in | humidity % | barometer mb |
| 20260507182003 | 47 | 310 | 0.0 | 4.0 | 0.00 | 0.00 | 0.00 | 72 | 1000.8 |
| 20260507181003 | 48 | 37 | 1.0 | 4.0 | 0.00 | 0.00 | 0.00 | 71 | 1000.4 |
| 20260507174004 | 49 | 156 | 1.0 | 6.0 | 0.00 | 0.00 | 0.00 | 69 | 1000.1 |
| 20260507173003 | 49 | 16 | 2.0 | 6.0 | 0.00 | 0.00 | 0.00 | 68 | 1000.1 |
| 20260507172004 | 50 | 345 | 2.0 | 6.0 | 0.00 | 0.00 | 0.00 | 67 | 999.8 |
| 20260507171003 | 51 | 7 | 2.0 | 7.0 | 0.00 | 0.00 | 0.00 | 66 | 999.7 |
| 20260507170003 | 52 | 333 | 2.0 | 6.0 | 0.00 | 0.00 | 0.00 | 62 | 999.6 |
| 20260507165001 | 54 | 112 | 6.0 | 16.0 | 0.00 | 0.00 | 0.00 | 61 | 999.5 |
| 20260507163002 | 55 | 303 | 5.0 | 14.0 | 0.00 | 0.00 | 0.00 | 53 | 999.3 |
| 20260507162002 | 56 | 295 | 7.0 | 14.0 | 0.00 | 0.00 | 0.00 | 49 | 999.2 |
| 20260507161001 | 58 | 301 | 2.0 | 11.0 | 0.00 | 0.00 | 0.00 | 50 | 999.2 |
| 20260507160001 | 58 | 86 | 2.0 | 13.0 | 0.00 | 0.00 | 0.00 | 48 | 999.0 |
| 20260507154959 | 55 | 11 | 7.0 | 15.0 | 0.00 | 0.00 | 0.00 | 55 | 999.2 |
| 20260507153959 | 53 | 299 | 8.0 | 15.0 | 0.00 | 0.00 | 0.00 | 58 | 999.2 |
| 20260507152959 | 54 | 270 | 6.0 | 13.0 | 0.00 | 0.00 | 0.00 | 57 | 999.2 |
| 20260507152000 | 54 | 292 | 7.0 | 15.0 | 0.00 | 0.00 | 0.00 | 56 | 999.2 |
| 20260507151000 | 55 | 325 | 6.0 | 15.0 | 0.00 | 0.00 | 0.00 | 54 | 999.0 |
| 20260507145957 | 55 | 284 | 6.0 | 12.0 | 0.00 | 0.00 | 0.00 | 45 | 999.0 |
| 20260507144957 | 56 | 284 | 6.0 | 14.0 | 0.00 | 0.00 | 0.00 | 48 | 998.9 |
| 20260507143957 | 56 | 282 | 6.0 | 16.0 | 0.00 | 0.00 | 0.00 | 50 | 999.0 |
| 20260507142958 | 57 | 248 | 6.0 | 16.0 | 0.00 | 0.00 | 0.00 | 50 | 999.2 |
| 20260507141958 | 56 | 144 | 3.0 | 8.0 | 0.00 | 0.00 | 0.00 | 49 | 999.0 |
| 20260507141002 | 56 | 209 | 6.0 | 14.0 | 0.00 | 0.00 | 0.00 | 45 | 999.2 |
| 20260507135957 | 57 | 177 | 6.0 | 14.0 | 0.00 | 0.00 | 0.00 | 49 | 999.3 |
| 20260507134957 | 56 | 171 | 6.0 | 12.0 | 0.00 | 0.00 | 0.00 | 47 | 999.2 |
| 20260507133958 | 57 | 184 | 4.0 | 13.0 | 0.00 | 0.00 | 0.00 | 49 | 999.3 |
| 20260507132957 | 56 | 157 | 5.0 | 13.0 | 0.00 | 0.00 | 0.00 | 53 | 999.3 |
| 20260507131955 | 57 | 137 | 6.0 | 11.0 | 0.00 | 0.02 | 0.00 | 50 | 999.4 |
| 20260507125953 | 58 | 132 | 3.0 | 9.0 | 0.00 | 0.11 | 0.00 | 62 | 999.4 |
| 20260507124954 | 56 | 84 | 3.0 | 10.0 | 0.00 | 0.15 | 0.00 | 64 | 999.4 |
| 20260507123954 | 58 | 70 | 3.0 | 10.0 | 0.00 | 0.18 | 0.00 | 65 | 999.3 |
| 20260507122954 | 58 | 33 | 2.0 | 5.0 | 0.00 | 0.22 | 0.00 | 67 | 999.3 |
| 20260507121953 | 58 | 130 | 2.0 | 6.0 | 0.00 | 0.24 | 0.00 | 63 | 999.4 |
| 20260507115951 | 55 | 108 | 2.0 | 4.0 | 0.00 | 0.26 | 0.00 | 70 | 999.5 |
| 20260507114951 | 52 | 152 | 1.0 | 4.0 | 0.00 | 0.27 | 0.00 | 70 | 999.5 |
| 20260507113951 | 51 | 113 | 1.0 | 6.0 | 0.00 | 0.28 | 0.00 | 69 | 999.6 |
| 20260507112952 | 51 | 186 | 1.0 | 6.0 | 0.00 | 0.28 | 0.00 | 70 | 999.5 |
| 20260507111949 | 51 | 212 | 1.0 | 5.0 | 0.00 | 0.28 | 0.00 | 70 | 999.5 |
| 20260507110947 | 51 | 32 | 2.0 | 5.0 | 0.00 | 0.29 | 0.00 | 69 | 999.7 |
| 20260507105947 | 51 | 112 | 1.0 | 4.0 | 0.00 | 0.30 | 0.00 | 71 | 999.7 |
| 20260507103948 | 50 | 130 | 2.0 | 5.0 | 0.00 | 0.32 | 0.00 | 68 | 999.8 |
| 20260507102948 | 50 | 130 | 2.0 | 6.0 | 0.00 | 0.33 | 0.00 | 69 | 1000.0 |
| 20260507101948 | 50 | 154 | 1.0 | 4.0 | 0.00 | 0.34 | 0.00 | 70 | 1000.0 |
| 20260507100935 | 51 | 263 | 2.0 | 4.0 | 0.00 | 0.34 | 0.00 | 68 | 1000.0 |
| 20260507095950 | 50 | 126 | 2.0 | 4.0 | 0.00 | 0.34 | 0.00 | 68 | 1000.1 |
| 20260507094937 | 51 | 99 | 2.0 | 7.0 | 0.00 | 0.34 | 0.00 | 69 | 1000.0 |
| 20260507093936 | 52 | 153 | 3.0 | 7.0 | 0.00 | 0.34 | 0.00 | 72 | 1000.0 |
| 20260507092935 | 51 | 182 | 2.0 | 5.0 | 0.00 | 0.34 | 0.00 | 74 | 1000.0 |
| 20260507090931 | 51 | 138 | 2.0 | 7.0 | 0.00 | 0.34 | 0.00 | 74 | 999.8 |
| 20260507085931 | 50 | 278 | 2.0 | 7.0 | 0.00 | 0.35 | 0.00 | 69 | 999.8 |
| 20260507084931 | 53 | 40 | 2.0 | 6.0 | 0.00 | 0.35 | 0.00 | 62 | 999.7 |
| 20260507083932 | 51 | 13 | 2.0 | 6.0 | 0.00 | 0.35 | 0.00 | 66 | 999.7 |
| 20260507080935 | 49 | 105 | 2.0 | 5.0 | 0.00 | 0.35 | 0.00 | 70 | 999.6 |
| 20260507074931 | 47 | 165 | 2.0 | 5.0 | 0.00 | 0.35 | 0.00 | 74 | 999.8 |
| 20260507073931 | 46 | 138 | 3.0 | 5.0 | 0.00 | 0.35 | 0.00 | 76 | 999.7 |
| 20260507072932 | 45 | 146 | 2.0 | 4.0 | 0.00 | 0.35 | 0.00 | 79 | 999.7 |
| 20260507071933 | 44 | 178 | 1.0 | 3.0 | 0.00 | 0.35 | 0.00 | 79 | 999.7 |
| 20260507070932 | 44 | 155 | 2.0 | 4.0 | 0.00 | 0.35 | 0.00 | 80 | 999.7 |
| 20260507065930 | 43 | 128 | 2.0 | 4.0 | 0.00 | 0.35 | 0.00 | 81 | 999.7 |
| 20260507064922 | 42 | 140 | 1.0 | 4.0 | 0.00 | 0.35 | 0.00 | 81 | 999.7 |
| 20260507063920 | 41 | 172 | 1.0 | 2.0 | 0.00 | 0.36 | 0.00 | 81 | 999.7 |
| 20260507062920 | 40 | 172 | 0.0 | 2.0 | 0.00 | 0.39 | 0.00 | 81 | 999.6 |
| 20260507061920 | 39 | 172 | 1.0 | 2.0 | 0.00 | 0.40 | 0.00 | 81 | 999.6 |
| 20260507060919 | 39 | 172 | 0.0 | 2.0 | 0.00 | 0.41 | 0.00 | 81 | 999.5 |
| 20260507055915 | 39 | 172 | 1.0 | 2.0 | 0.00 | 0.41 | 0.00 | 81 | 999.4 |
| 20260507054915 | 38 | 172 | 0.0 | 2.0 | 0.00 | 0.41 | 0.00 | 81 | 999.3 |
| 20260507053915 | 38 | 172 | 0.0 | 2.0 | 0.00 | 0.41 | 0.00 | 81 | 999.3 |
| 20260507052915 | 38 | 172 | 0.0 | 2.0 | 0.00 | 0.41 | 0.00 | 81 | 999.2 |
| 20260507051915 | 37 | 172 | 1.0 | 2.0 | 0.00 | 0.41 | 0.00 | 81 | 999.0 |
| 20260507050915 | 37 | 172 | 0.0 | 2.0 | 0.00 | 0.41 | 0.00 | 81 | 998.7 |
| 20260507045917 | 37 | 172 | 0.0 | 3.0 | 0.00 | 0.41 | 0.00 | 80 | 998.7 |
| 20260507044915 | 37 | 172 | 1.0 | 3.0 | 0.00 | 0.41 | 0.00 | 80 | 998.7 |
| 20260507043915 | 37 | 172 | 1.0 | 3.0 | 0.00 | 0.41 | 0.00 | 80 | 998.7 |
| 20260507042916 | 37 | 172 | 1.0 | 2.0 | 0.00 | 0.41 | 0.00 | 81 | 998.6 |
| 20260507041916 | 37 | 172 | 0.0 | 2.0 | 0.00 | 0.41 | 0.00 | 81 | 998.4 |
| 20260507040914 | 36 | 172 | 1.0 | 2.0 | 0.00 | 0.41 | 0.00 | 81 | 998.5 |
| 20260507035923 | 36 | 172 | 1.0 | 3.0 | 0.00 | 0.41 | 0.00 | 81 | 998.4 |
| 20260507034909 | 37 | 172 | 1.0 | 3.0 | 0.00 | 0.41 | 0.00 | 81 | 998.5 |
| 20260507033903 | 37 | 184 | 1.0 | 4.0 | 0.00 | 0.41 | 0.00 | 81 | 998.6 |
| 20260507032859 | 37 | 213 | 2.0 | 4.0 | 0.00 | 0.41 | 0.00 | 81 | 998.4 |
| 20260507030854 | 37 | 161 | 1.0 | 3.0 | 0.00 | 0.42 | 0.00 | 80 | 998.6 |
| 20260507025850 | 37 | 161 | 1.0 | 4.0 | 0.00 | 0.42 | 0.00 | 80 | 998.6 |
| 20260507024847 | 37 | 161 | 2.0 | 4.0 | 0.00 | 0.42 | 0.00 | 80 | 998.5 |
| 20260507023846 | 37 | 201 | 2.0 | 4.0 | 0.00 | 0.42 | 0.00 | 80 | 998.5 |
| 20260507021836 | 37 | 224 | 0.0 | 2.0 | 0.00 | 0.42 | 0.00 | 80 | 998.4 |
| 20260507020837 | 37 | 224 | 1.0 | 2.0 | 0.00 | 0.42 | 0.00 | 80 | 998.4 |
| 20260507015837 | 38 | 235 | 1.0 | 3.0 | 0.00 | 0.42 | 0.00 | 80 | 998.5 |
| 20260507013845 | 37 | 176 | 1.0 | 5.0 | 0.00 | 0.42 | 0.00 | 80 | 998.1 |
| 20260507012835 | 38 | 174 | 2.0 | 5.0 | 0.00 | 0.42 | 0.00 | 80 | 998.0 |
| 20260507011855 | 39 | 282 | 0.0 | 0.0 | 0.00 | 0.42 | 0.00 | 79 | 998.0 |
| 20260507010827 | 39 | 282 | 0.0 | 0.0 | 0.00 | 0.42 | 0.00 | 78 | 998.0 |
| 20260507005821 | 39 | 282 | 0.0 | 0.0 | 0.00 | 0.42 | 0.00 | 78 | 998.2 |
| 20260507004820 | 39 | 282 | 0.0 | 0.0 | 0.00 | 0.42 | 0.00 | 78 | 998.0 |
| 20260507003815 | 39 | 282 | 0.0 | 0.0 | 0.00 | 0.42 | 0.00 | 78 | 998.0 |
| 20260507002759 | 39 | 282 | 0.0 | 0.0 | 0.00 | 0.43 | 0.00 | 78 | 998.0 |
| 20260507001812 | 39 | 282 | 0.0 | 0.0 | 0.00 | 0.43 | 0.00 | 78 | 997.8 |
| 20260507000807 | 39 | 283 | 0.0 | 0.0 | 0.00 | 0.43 | 0.00 | 77 | 997.9 |
| 20260506235806 | 39 | 178 | 0.0 | 0.0 | 0.00 | 0.43 | 0.00 | 78 | 997.9 |
| 20260506234746 | 40 | 178 | 0.0 | 0.0 | 0.00 | 0.43 | 0.00 | 78 | 997.9 |
| 20260506231754 | 40 | 178 | 0.0 | 0.0 | 0.00 | 0.43 | 0.00 | 76 | 998.0 |
| 20260506230751 | 40 | 179 | 0.0 | 0.0 | 0.00 | 0.43 | 0.00 | 76 | 997.9 |
| 20260506225750 | 40 | 179 | 0.0 | 0.0 | 0.00 | 0.43 | 0.00 | 76 | 997.5 |
| 20260506224725 | 40 | 179 | 0.0 | 0.0 | 0.00 | 0.43 | 0.00 | 76 | 997.8 |
| 20260506223719 | 40 | 226 | 0.0 | 0.0 | 0.00 | 0.43 | 0.00 | 76 | 997.7 |
| 20260506222715 | 40 | 174 | 0.0 | 0.0 | 0.00 | 0.44 | 0.00 | 76 | 997.5 |
| 20260506220713 | 41 | 174 | 0.0 | 0.0 | 0.00 | 0.44 | 0.00 | 77 | 997.5 |
| 20260506215710 | 40 | 174 | 0.0 | 0.0 | 0.00 | 0.44 | 0.44 | 78 | 997.5 |
| 20260506214703 | 41 | 174 | 0.0 | 0.0 | 0.00 | 0.44 | 0.44 | 78 | 997.5 |
| 20260506213658 | 41 | 174 | 0.0 | 0.0 | 0.00 | 0.44 | 0.44 | 78 | 997.4 |
| 20260506212656 | 41 | 174 | 0.0 | 0.0 | 0.00 | 0.44 | 0.44 | 78 | 997.5 |
| 20260506211652 | 41 | 174 | 0.0 | 0.0 | 0.00 | 0.44 | 0.44 | 79 | 997.5 |
| 20260506205648 | 41 | 174 | 0.0 | 0.0 | 0.00 | 0.45 | 0.44 | 79 | 997.3 |
| 20260506204642 | 42 | 174 | 0.0 | 0.0 | 0.00 | 0.45 | 0.44 | 79 | 997.2 |
| 20260506203642 | 42 | 174 | 0.0 | 0.0 | 0.00 | 0.45 | 0.44 | 79 | 997.3 |
| 20260506202642 | 42 | 174 | 0.0 | 0.0 | 0.00 | 0.45 | 0.44 | 79 | 997.2 |
| 20260506201656 | 41 | 174 | 0.0 | 4.0 | 0.00 | 0.45 | 0.44 | 79 | 997.1 |
| 20260506200651 | 41 | 174 | 1.0 | 4.0 | 0.00 | 0.45 | 0.44 | 79 | 997.1 |
| 20260506195657 | 41 | 246 | 1.0 | 3.0 | 0.00 | 0.45 | 0.44 | 79 | 997.0 |
| 20260506194653 | 41 | 246 | 1.0 | 3.0 | 0.00 | 0.45 | 0.44 | 79 | 996.9 |
| 20260506193631 | 41 | 246 | 1.0 | 3.0 | 0.00 | 0.45 | 0.44 | 79 | 996.9 |
| 20260506192613 | 41 | 137 | 0.0 | 2.0 | 0.00 | 0.45 | 0.44 | 80 | 996.7 |
| 20260506191625 | 41 | 137 | 1.0 | 2.0 | 0.00 | 0.45 | 0.44 | 80 | 996.7 |
| 20260506190623 | 42 | 137 | 0.0 | 2.0 | 0.00 | 0.45 | 0.44 | 80 | 996.5 |
| 20260506185607 | 42 | 137 | 0.0 | 2.0 | 0.00 | 0.45 | 0.44 | 80 | 996.3 |
| 20260506184604 | 42 | 137 | 1.0 | 2.0 | 0.00 | 0.45 | 0.44 | 80 | 996.2 |